Tracking 20093 objects as of 14-Dec-2019
HD Live streaming from Space Station
objects crossing your sky now

CZ-2D DEB

Track CZ-2D DEB now!
10-day predictions


NORAD ID: 38178
Int'l Code: 2011-068F
Perigee: 700.7 km
Apogee: 891.6 km
Inclination: 98.6 °
Period: 100.6 minutes
Semi major axis: 7167 km
RCS: 0.0014 m2 (small)
Launch date: November 20, 2011
Source: People's Republic of China (PRC)
Launch site: Jiuquan Satellite Launch Center, China (JSC)

Note: This is SATELLITE DEBRIS
aabbcc
Your satellite tracking list
Your tracking list is empty




NASA's NSSDC Master Catalog

Two Line Element Set (TLE):
1 38178U 11068F   19347.73148240 +.00000088 +00000-0 +46674-4 0  9993
2 38178 098.6256 320.0024 0133218 223.9316 262.4163 14.30818476417424
Source of the keplerian elements: AFSPC